TimeMDT,TemperatureF,Dew PointF,Humidity,Sea Level PressureIn,VisibilityMPH,Wind Direction,Wind SpeedMPH,Gust SpeedMPH,PrecipitationIn,Events,Conditions,WindDirDegrees,DateUTC
12:52 AM,28.9,17.1,61,29.87,10.0,NW,11.5,-,N/A,,Clear,310,2013-10-31 06:52:00
1:52 AM,28.0,15.1,58,29.88,10.0,WNW,8.1,-,N/A,,Clear,300,2013-10-31 07:52:00
2:52 AM,28.0,14.0,56,29.90,10.0,NW,8.1,-,N/A,,Clear,310,2013-10-31 08:52:00
3:52 AM,28.0,14.0,56,29.90,10.0,NW,6.9,-,N/A,,Clear,310,2013-10-31 09:52:00
4:52 AM,19.0,12.9,77,29.97,10.0,Calm,Calm,-,N/A,,Clear,0,2013-10-31 10:52:00
5:52 AM,17.1,12.0,81,30.03,10.0,SW,6.9,-,N/A,,Clear,220,2013-10-31 11:52:00
6:52 AM,17.1,12.9,84,30.06,10.0,South,5.8,-,N/A,,Scattered Clouds,180,2013-10-31 12:52:00
7:52 AM,17.1,12.0,81,30.09,10.0,Calm,Calm,-,N/A,,Scattered Clouds,0,2013-10-31 13:52:00
8:52 AM,27.0,17.1,66,30.08,10.0,WSW,5.8,-,N/A,,Clear,250,2013-10-31 14:52:00
9:52 AM,37.0,14.0,39,30.03,10.0,Calm,Calm,-,N/A,,Clear,0,2013-10-31 15:52:00
10:52 AM,39.9,14.0,35,30.03,10.0,NNW,8.1,-,N/A,,Clear,330,2013-10-31 16:52:00
11:52 AM,42.1,12.9,31,30.01,10.0,ENE,5.8,-,N/A,,Clear,60,2013-10-31 17:52:00
12:52 PM,42.1,12.0,29,29.99,10.0,Calm,Calm,-,N/A,,Clear,0,2013-10-31 18:52:00
1:52 PM,44.1,12.9,28,29.96,10.0,Calm,Calm,-,N/A,,Clear,0,2013-10-31 19:52:00
2:52 PM,46.0,12.9,26,29.93,10.0,NNW,3.5,-,N/A,,Clear,330,2013-10-31 20:52:00
3:52 PM,46.9,12.9,25,29.93,10.0,WNW,4.6,-,N/A,,Clear,290,2013-10-31 21:52:00
4:52 PM,46.0,15.1,29,29.98,10.0,North,13.8,20.7,N/A,,Clear,10,2013-10-31 22:52:00
5:52 PM,39.9,17.1,40,30.02,9.0,North,11.5,19.6,N/A,,Clear,350,2013-10-31 23:52:00
6:52 PM,36.0,16.0,44,30.06,10.0,North,13.8,19.6,N/A,,Clear,360,2013-11-01 00:52:00
7:52 PM,33.1,16.0,50,30.11,10.0,NE,10.4,-,N/A,,Clear,50,2013-11-01 01:52:00
8:52 PM,32.0,17.1,54,30.07,10.0,North,11.5,-,N/A,,Clear,10,2013-11-01 02:52:00
9:52 PM,34.0,17.1,50,30.03,10.0,NNW,13.8,21.9,N/A,,Clear,340,2013-11-01 03:52:00
10:52 PM,30.9,17.1,57,30.06,10.0,NNE,6.9,-,N/A,,Clear,20,2013-11-01 04:52:00
11:52 PM,26.1,16.0,66,30.07,10.0,NNE,6.9,-,N/A,,Clear,20,2013-11-01 05:52:00